SCP
0 0 0 0 0 0 0 0 0 0 0 0 0 0 0 0 0 0 0 0 0 0 0 0 0 0 0 0 0 0 0 0 0 0 0 0 0 0 0 0 0 0 0
0 0 0 0 0 0 0 0 0 0 0 0 0 0 0 0 0 0 0 0 0 0 0 0 0 0 0 0 0 0 0 0 0 0 0 0 0 0 0 0 0 0 0
0 0 0 0 0 0 0 0 0 0 0 0 0 0 0 0 0 0 0 0 0 0 0 0 0 0 0 0 0 0 0 0 0 0 0 0 0 0 0 0 0 0 0
0 0 0 0 0 0 0 0 0 0 0 0 0 0 0 0 0 0 0 0 0 0 0 0 0 0 0 0 0 0 0 0 0 0 0 0 0 0 0 0 0 0 0
0 0 0 0 0 0 0 0 0 0 0 0 0 0 0 0 0 0 0 0 0 0 0 0 0 0 0 0 0 0 0 0 0 0 0 0 0 0 0 0 0 0 0
0 0 0 0 0 0 0 0 0 0 0 0 0 0 0 0 0 0 0 0 0 0 0 0 0 0 0 0 0 0 0 0 0 0 0 0 0 0 0 0 0 0 0
0 0 0 0 0 0 0 0 0 0 0 0 0 0 0 0 0 0 0 0 0 0 0 0 0 0 0 0 0 0 0 0 0 0 0 0 0 0 0 0 0 0 0
0 0 0 0 0 0 0 0 0 0 0 0 0 0 0 0 0 0 0 0 0 0 0 0 0 0 0 0 0 0 0 0 0 0 0 0 0 0 0 0 0 0 0
0 0 0 0 0 0 0 0 0 0 0 0 0 0 0 0 0 0 0 0 0 0 0 0 0 0 0 0 0 0 0 0 0 0 0 0 0 0 0 0 0 0 0
0 0 0 0 0 0 0 0 0 0 0 0 0 0 0 0 0 0 0 0 0 0 0 0 0 0 0 0 0 0 0 0 0 0 0 0 0 0 0 0 0 0 0
0 0 0 0 0 0 0 0 0 0 0 0 0 0 0 0 0 0 0 0 0 0 0 0 0 0 0 0 0 0 0 0 0 0 0 0 0 0 0 0 0 0 0
0 0 0 0 0 0 0 0 0 0 0 0 0 0 0 0 0 0 0 0 0 0 0 0 0 0 0 0 0 0 0 0 0 0 0 0 0 0 0 0 0 0 0
0 0 0 0 0 0 0 0 0 0 0 0 0 0 0 0 0 0 0 0 0 0 0 0 0 0 0 0 0 0 0 0 0 0 0 0 0 0 0 0 0 0 0
0 0 0 0 0 0 0 0 0 0 0 0 0 0 0 0 0 0 0 0 0 0 0 0 0 0 0 0 0 0 0 0 0 0 0 0 0 0 0 0 0 0 0
0 0 0 0 0 0 0 0 0 0 0 0 0 0 0 0 0 0 0 0 0 0 0 0 0 0 0 0 0 0 0 0 0 0 0 0 0 0 0 0 0 0 0
0 0 0 0 0 0 0 0 0 0 0 0 0 0 0 0 0 0 0 0 0 0 0 0 0 0 0 0 0 0 0 0 0 0 0 0 0 0 0 0 0 0 0
0 0 0 0 0 0 0 0 0 0 0 0 0 0 0 0 0 0 0 0 0 0 0 0 0 0 0 0 0 0 0 0 0 0 0 0 0 0 0 0 0 0 0
0 0 0 0 0 0 0 0 0 0 0 0 0 0 0 0 0 0 0 0 0 0 0 0 0 0 0 0 0 0 0 0 0 0 0 0 0 0 0 0 0 0 0
0 0 0 0 0 0 0 0 0 0 0 0 0 0 0 0 0 0 0 0 0 0 0 0 0 0 0 0 0 0 0 0 0 0 0 0 0 0 0 0 0 0 0
0 0 0 0 0 0 0 0 0 0 0 0 0 0 0 0 0 0 0 0 0 0 0 0 0 0 0 0 0 0 0 0 0 0 0 0 0 0 0 0 0 0 0
0 0 0 0 0 0 0 0 0 0 0 0 0 0 0 0 0 0 0 0 0 0 0 0 0 0 0 0 0 0 0 0 0 0 0 0 0 0 0 0 0 0 0
0 0 0 0 0 0 0 0 0 0 0 0 0 0 0 0 0 0 0 0 0 0 0 0 0 0 0 0 0 0 0 0 0 0 0 0 0 0 0 0 0 0 0
0 0 0 0 0 0 0 0 0 0 0 0 0 0 0 0 0 0 0 0 0 0 0 0 0 0 0 0 0 0 0 0 0 0 0 0 0 0 0 0 0 0 0
0 0 0 0 0 0 0 0 0 0 0 0 0 0 0 0 0 0 0 0 0 0 0 0 0 0 0 0 0 0 0 0 0 0 0 0 0 0 0 0 0 0 0
0 0 0 0 0 0 0 0 0 0 0 0 0 0 0 0 0 0 0 0 0 0 0 0 0 0 0 0 0 0 0 0 0 0 0 0 0 0 0 0 0 0 0
0 0 0 0 0 0 0 0 0 0 0 0 0 0 0 0 0 0 0 0 0 0 0 0 0 0 0 0 0 0 0 0 0 0 0 0 0 0 0 0 0 0 0
Wind_Speed
1 2 6 8 8 8 9 10 10 11 12 12 13 14 14 15 15 15 15 15 14 14 14 13 13 14 14 13 12 12 12 11 11 12 12 12 11 11 11 11 11 9 12
2 3 7 9 9 8 10 10 10 11 11 12 12 13 13 14 14 14 14 14 14 14 14 13 13 14 13 12 12 11 10 11 11 11 11 11 11 11 11 11 11 8 12
4 3 6 9 9 9 10 10 10 11 11 11 12 11 12 12 13 13 13 13 14 14 13 13 13 13 12 12 11 10 10 10 10 10 9 6 7 10 10 10 11 11 11
5 4 6 9 9 9 9 9 10 10 11 11 11 11 11 11 11 11 12 12 12 13 12 12 12 12 11 11 10 10 9 10 10 9 5 4 5 9 10 10 11 11 11
4 3 5 9 9 9 9 9 9 10 10 11 11 10 10 10 10 10 10 11 11 12 12 11 11 11 10 10 9 8 9 9 9 7 4 4 3 8 9 10 10 11 11
4 3 5 8 8 8 8 8 9 9 10 10 10 10 9 9 9 9 9 10 11 11 10 10 10 10 9 9 8 8 8 9 7 5 4 4 3 7 9 10 10 10 10
4 3 4 7 7 7 7 8 8 8 8 9 9 9 8 8 8 8 8 9 10 10 10 9 9 9 8 8 7 7 8 8 6 5 4 4 4 7 8 9 10 10 9
4 3 3 6 6 6 6 7 7 7 7 8 8 7 7 7 7 7 7 8 9 9 9 9 8 8 8 7 7 7 7 7 6 5 4 4 5 7 8 9 9 9 9
3 2 1 2 3 5 6 6 6 6 6 6 6 6 6 6 6 6 6 7 8 9 9 9 8 7 7 6 6 6 7 7 5 4 5 3 6 8 8 8 9 9 9
2 1 1 1 1 1 2 5 5 5 5 5 5 5 5 4 4 5 5 6 7 8 8 7 7 7 6 6 6 6 6 5 4 4 3 4 7 8 9 9 9 9 9
1 0 1 1 1 1 1 3 3 4 4 3 3 3 2 1 1 2 4 6 7 7 6 6 6 6 6 5 5 5 4 2 3 3 3 6 8 9 9 9 8 8 8
1 0 1 1 1 1 1 1 1 1 1 1 1 1 1 1 1 1 3 5 5 5 5 5 5 4 3 2 3 4 2 2 3 3 3 8 8 8 9 9 8 8 9
1 1 1 0 1 1 1 1 1 1 1 1 1 1 1 1 1 1 0 1 1 2 1 2 1 1 2 2 2 2 2 2 2 2 4 8 8 9 9 9 8 9 9
2 1 1 1 1 1 1 1 1 1 1 0 0 1 1 1 1 1 0 0 0 1 1 1 1 1 2 2 3 2 3 2 2 2 3 8 8 9 9 9 8 9 9
1 1 0 1 1 1 1 0 1 1 1 1 0 0 1 1 0 0 0 0 0 1 1 1 1 2 2 2 2 3 3 3 3 3 2 6 7 8 9 9 8 8 8
2 1 1 1 1 1 1 0 1 1 1 1 0 1 1 1 1 1 0 0 1 1 1 2 2 2 2 2 2 2 3 3 3 3 3 4 7 8 8 8 8 8 8
3 2 1 1 1 1 1 0 0 1 1 1 0 1 1 1 1 1 0 0 1 1 2 2 2 1 1 1 2 2 2 3 3 3 3 2 3 6 8 8 8 8 8
3 2 2 2 1 1 1 1 0 0 1 0 0 0 1 1 1 1 1 0 1 1 2 2 2 1 1 1 1 1 1 2 2 3 3 3 3 3 5 7 8 8 9
4 3 2 1 1 1 1 1 1 1 1 0 0 0 0 1 1 2 1 1 1 1 1 2 2 2 2 1 1 1 1 1 2 2 3 3 3 3 3 4 7 8 9
3 3 2 1 1 0 1 1 1 1 1 0 0 0 0 0 1 1 1 1 1 1 1 1 2 2 2 1 1 1 0 1 1 2 2 2 2 3 3 4 3 4 8
3 2 2 2 1 1 1 1 1 0 0 1 1 1 0 0 1 1 1 1 2 2 2 2 2 2 1 2 2 1 1 1 0 1 1 2 2 3 3 3 3 3 3
4 4 3 3 2 1 1 1 1 1 1 0 1 1 1 0 0 1 1 1 2 2 2 2 3 2 1 1 2 1 1 2 1 0 1 2 2 2 3 3 4 4 3
5 5 4 4 3 2 2 2 2 2 2 1 1 1 2 1 1 0 1 1 2 2 2 2 3 3 2 1 1 2 2 1 1 1 1 1 1 1 2 2 3 4 4
5 4 3 4 3 3 3 2 2 2 1 1 0 0 1 1 1 0 1 1 1 1 2 2 2 2 3 2 1 1 1 2 1 1 1 0 1 1 2 2 2 3 3
3 3 3 3 3 3 3 3 2 1 1 0 0 1 1 1 1 0 1 1 1 1 1 2 2 2 2 2 2 1 1 1 1 1 2 1 1 1 1 2 2 2 2
3 3 3 4 3 2 2 2 3 3 2 1 0 0 1 1 1 1 1 1 1 1 2 2 2 2 2 2 1 1 1 2 2 2 2 2 2 2 1 1 1 1 1
Wind_Direction
219 197 163 147 139 134 131 128 127 130 129 131 135 138 138 139 142 144 144 145 144 142 139 138 140 138 136 138 137 134 132 131 130 131 132 131 129 129 128 127 123 121 122
156 146 149 146 140 135 131 128 125 124 126 129 134 135 138 140 143 144 146 147 146 145 142 141 139 138 138 140 138 135 132 130 129 131 132 133 134 133 133 134 131 129 130
125 126 136 138 135 132 130 128 126 124 125 128 131 132 138 140 143 146 148 149 149 148 147 144 141 140 141 140 138 136 136 135 132 130 127 124 133 137 140 141 138 135 132
119 116 128 135 135 134 131 129 128 129 130 133 134 135 137 139 142 145 147 149 151 151 151 148 146 144 142 142 141 141 141 143 139 133 122 120 132 141 144 144 140 138 135
107 110 133 134 135 134 132 129 128 131 133 135 136 137 140 143 145 148 150 153 155 156 155 153 149 147 146 146 147 146 146 146 146 137 121 118 125 147 148 146 143 141 140
114 119 136 134 134 134 134 132 132 134 135 137 141 141 142 145 147 152 156 158 159 158 156 155 153 152 150 148 151 153 153 152 147 136 133 133 138 154 153 150 147 146 143
120 119 133 136 136 138 138 137 136 135 134 136 140 144 148 149 151 155 161 164 161 158 157 158 157 155 154 155 156 158 157 155 145 139 142 146 157 161 158 156 151 149 147
122 121 130 137 137 137 137 139 138 138 138 138 140 145 150 151 152 159 163 162 163 163 162 162 164 164 165 164 162 159 156 156 149 150 151 159 171 169 165 163 157 156 156
99 106 109 132 136 137 139 139 139 140 143 141 147 151 152 158 159 161 164 161 167 168 167 167 171 172 172 172 167 164 164 165 151 157 167 172 182 179 175 169 166 166 166
86 90 105 94 96 129 150 150 147 147 149 149 153 157 160 165 168 164 163 169 176 176 174 176 179 180 179 178 171 171 172 169 160 166 171 184 190 188 185 177 176 175 175
81 63 103 93 91 101 153 161 156 161 158 160 162 157 154 82 98 150 161 176 178 176 178 183 189 189 185 185 180 179 178 168 162 175 180 194 194 195 195 186 186 184 183
140 139 102 98 95 102 148 119 89 110 107 100 84 106 73 51 41 98 170 178 181 178 180 184 192 191 183 174 187 184 174 175 181 191 197 200 198 200 196 194 193 193 192
162 152 115 116 102 106 109 117 96 70 61 64 80 95 84 59 32 33 75 170 166 169 153 170 165 155 159 170 175 174 181 187 194 202 207 206 201 200 199 200 200 200 199
121 138 135 120 95 90 111 138 129 115 108 110 86 106 94 58 27 20 24 74 120 139 146 160 162 164 167 178 178 186 193 195 194 200 211 209 205 207 207 206 209 206 205
160 174 115 101 106 99 110 190 144 154 158 156 150 159 147 141 213 278 262 144 159 149 159 166 169 158 164 178 186 191 202 201 195 197 213 216 213 212 211 212 213 211 208
195 212 166 126 125 105 114 141 150 161 145 124 161 188 171 167 194 212 204 179 194 177 172 169 172 162 166 175 188 200 209 203 198 198 205 220 219 214 211 214 218 220 217
198 200 186 165 113 112 143 178 136 138 120 132 174 187 177 175 185 168 145 155 179 161 147 141 145 150 157 160 177 199 202 199 194 198 205 216 223 219 218 221 226 227 224
186 187 203 184 136 153 166 176 155 126 133 152 160 179 177 179 175 153 157 200 156 133 131 136 144 146 149 159 167 196 189 187 197 197 198 209 216 223 223 225 231 232 230
185 182 190 203 164 179 175 157 125 103 108 159 167 201 208 188 174 160 170 184 132 125 132 148 128 135 140 145 152 184 200 193 195 194 193 208 214 216 221 226 233 233 231
180 181 187 202 200 158 105 96 91 74 51 32 315 280 253 216 186 161 166 164 138 130 121 122 128 118 131 141 114 31 322 234 201 203 202 202 211 222 225 229 234 238 235
173 179 189 191 192 124 88 112 134 138 41 21 349 352 325 233 181 169 171 155 151 152 155 143 132 123 119 115 98 44 10 358 217 208 193 200 216 225 217 222 226 231 239
193 196 196 198 187 174 155 145 134 121 95 80 9 16 8 32 160 176 161 164 155 149 145 145 142 129 128 125 130 108 13 355 351 257 186 197 220 219 223 227 224 225 232
204 204 205 201 193 187 160 110 87 70 45 30 19 7 356 20 38 66 141 157 155 157 168 172 160 154 161 152 144 148 155 224 312 337 272 213 208 214 233 236 233 232 232
213 205 201 195 191 189 166 149 147 149 177 247 232 331 349 9 25 79 135 143 148 157 175 192 174 167 162 178 191 201 190 163 169 323 332 309 241 238 254 252 250 240 235
202 189 178 171 182 186 176 170 160 173 194 211 56 19 356 359 360 57 132 133 146 157 170 177 163 162 169 179 178 171 166 151 175 185 271 308 334 300 280 265 261 253 239
191 177 158 155 173 180 174 176 177 181 179 156 155 345 340 358 358 23 98 127 151 160 171 178 166 160 164 162 171 179 178 176 184 184 221 262 291 303 301 276 266 260 249